Location: Belthorn
(33.9805°S, 18.5124°E)
Time: 00:54:48
(UTC+00:00)

Daily predictions for brighter satellites

Satellite Brightness Start Highest point End
(mag) Time Altitude Azimuth Time Altitude Azimuth Time Altitude Azimuth
ADEOS II 3.3 00:08:08 38° SSE 00:08:08 38° SSE 00:11:46 10° S
BREEZE-M DEB (TANK) 4.5 00:14:50 53° ENE 00:14:50 53° ENE 00:32:05 10° SE
SeaSat 1 3.9 00:12:29 10° SSE 00:15:20 35° S 00:15:20 35° S
Cosmos 1553 Rocket 4.5 00:12:55 10° S 00:17:46 56° SSW 00:17:46 56° SSW
NOSS 3-4 (A) 4.0 00:22:22 10° SSW 00:27:36 54° SW 00:27:36 54° SW
NOSS 3-4 (C) 4.0 00:22:29 10° SSW 00:27:45 55° SSW 00:27:45 55° SSW
S3M 4.3 00:28:30 10° S 00:33:46 63° SSW 00:33:46 63° SSW
SJ 16-02 3.8 00:38:26 16° E 00:38:26 16° E 00:40:21 10° ESE
ARIANE 5 R/B 3.5 00:45:48 41° SSW 00:45:48 41° SSW 00:49:04 10° SSW
SL-16 R/B 4.1 00:45:46 10° S 00:50:36 27° ESE 00:55:21 10° ENE
IDEFIX/ARIANE 42P 4.0 00:51:38 27° ENE 00:53:14 33° ESE 00:57:55 10° S
Cosmos 1980 Rocket 2.9 00:53:24 10° SSW 00:57:18 44° SW 00:57:18 44° SW
Cosmos 1538 Rocket 4.4 00:55:46 10° SSW 01:00:19 63° S 01:00:19 63° S
ATLAS 2AS CENTAUR R/B 3.9 00:55:25 10° SW 00:58:48 28° WSW 00:58:48 28° WSW
Cosmos 2285 Rocket 4.4 01:05:25 52° WSW 01:05:25 52° WSW 01:11:34 10° S
Cosmos 2266 Rocket 4.5 01:06:44 48° WSW 01:06:44 48° WSW 01:12:29 10° S
SL-16 R/B 2.8 01:01:35 10° SSE 01:07:44 58° ENE 01:08:43 52° NE
MOZ.5/SAFIR/RUBIN 5/SL-8 4.3 01:04:10 10° SSE 01:08:12 59° SE 01:08:12 59° SE
Cosmos 2315 Rocket 3.9 01:03:41 10° S 01:10:10 88° E 01:10:49 74° NNE
Cosmos 1455 Rocket 3.9 01:08:17 10° S 01:11:58 50° SE 01:11:58 50° SE
Cosmos 1975 Rocket 4.4 01:15:04 32° SSW 01:15:04 32° SSW 01:17:38 10° S
IRIDIUM 104 4.4 01:15:11 70° E 01:15:15 71° E 01:20:32 10° S
ERS-2 3.7 01:17:07 10° SSE 01:19:25 35° SSE 01:19:25 35° SSE
IRIDIUM 114 4.2 01:24:20 86° NE 01:24:24 87° E 01:29:42 10° S
Cosmos 1437 Rocket 3.6 01:27:03 51° ESE 01:27:03 51° ESE 01:30:30 10° SSE
Cosmos 1937 Rocket 4.2 01:28:19 41° NE 01:29:18 46° ENE 01:34:16 10° SSE
Cosmos 1544 Rocket 3.8 01:26:30 10° S 01:30:55 71° ESE 01:30:55 71° ESE
Cosmos 1898 Rocket 3.5 01:30:53 67° NE 01:31:20 71° ENE 01:36:35 10° SSE
Cosmos 1680 Rocket 4.4 01:26:35 10° S 01:31:43 47° ESE 01:36:11 13° NE
IRIDIUM 103 4.2 01:33:27 76° W 01:33:31 76° W 01:38:50 10° S
MSX 4.2 01:31:30 24° NE 01:35:00 61° ESE 01:40:43 10° S
Cosmos 1025 Rocket 3.1 01:39:38 76° ENE 01:39:41 76° E 01:44:10 10° S
Meteor 1-21 4.2 01:41:00 59° NNW 01:42:08 83° W 01:48:02 10° S
ATLAS 5 CENTAUR R/B 3.2 01:43:51 39° W 01:45:45 48° SW 01:52:14 10° SSE
RESURS DK-1 3.2 01:42:12 10° S 01:46:16 49° ESE 01:49:00 19° NE
ADEOS II 4.2 01:49:05 12° WSW 01:49:05 12° WSW 01:49:53 10° SW
Cosmos 2112 Rocket 4.5 01:45:11 10° S 01:50:28 61° ESE 01:55:44 10° NNE
Meteor 2-14 Rocket 4.4 01:48:17 39° N 01:50:45 83° E 01:56:55 10° S
Cosmos 2322 Rocket 2.3 01:46:13 10° SSW 01:51:54 77° ESE 01:57:32 10° NNE
ISS -1.9 01:52:44 25° ENE 01:52:44 25° ENE 01:55:03 10° ESE
Centaur D AC-25 3.2 02:02:33 36° N 02:02:46 36° N 02:06:20 10° ENE
SL-8 R/B 4.1 02:06:27 41° N 02:07:38 51° NE 02:12:18 10° ESE
Cosmos 990 Rocket 4.3 02:07:07 43° WNW 02:08:11 50° WSW 02:13:15 10° S
CZ-4C R/B 4.0 02:05:24 10° SSE 02:08:25 37° E 02:09:14 31° NE
Cosmos 1536 Rocket 3.9 02:08:08 46° W 02:08:27 47° W 02:12:51 10° S
SJ 16-02 2.2 02:15:26 33° W 02:15:49 33° WSW 02:19:51 10° S
CZ-2C R/B 2.5 02:14:00 10° NNE 02:19:11 84° ESE 02:24:19 10° S
Cosmos 1745 Rocket 4.1 02:16:21 29° NNW 02:19:45 65° W 02:26:09 10° S
DELTA 2 R/B (1) 3.9 02:18:21 26° W 02:21:29 63° SSW 02:27:04 10° ESE
Meteor 2-21 Rocket 4.5 02:19:26 29° NNW 02:22:36 61° W 02:28:41 10° S
Cosmos 2098 Rocket 4.3 02:23:05 23° WSW 02:23:05 23° WSW 02:25:41 10° SSW
COSMOS 2487 4.0 02:23:06 22° WSW 02:23:06 22° WSW 02:25:32 10° SSW
ERBS 2.2 02:22:33 63° NW 02:23:03 86° WSW 02:26:31 10° SE
SL-08 R/B 3.4 02:25:25 10° S 02:30:23 66° WSW 02:33:08 26° NNW
Atlas Centaur 2 3.7 02:26:25 23° NNW 02:31:04 42° NNE 02:38:20 10° E
Cosmos 1470 3.2 02:28:52 10° SSW 02:32:39 42° W 02:33:40 34° NW
IDEFIX/ARIANE 42P 3.6 02:32:26 24° WNW 02:32:47 25° W 02:37:03 10° SW
H-2A R/B 2.1 02:28:58 10° S 02:33:03 57° WSW 02:34:48 31° NW
Spot 2 4.2 02:31:10 28° NNW 02:33:04 50° W 02:37:19 10° SSW
SL-16 R/B 2.8 02:29:32 10° SW 02:34:41 36° WNW 02:37:57 20° NNW
Cosmos 2084 Rocket 3.3 02:30:43 10° SW 02:34:58 66° WNW 02:39:13 10° NNE
PSLV R/B 4.4 02:35:45 27° WNW 02:35:57 28° W 02:39:36 10° SW
Cosmos 2360 Rocket 2.2 02:30:59 10° SSW 02:36:44 89° WNW 02:42:25 10° NNE
Cosmos 1484 Rocket 4.3 02:35:06 10° NE 02:38:50 40° ESE 02:42:39 10° S
Cosmos 1707 3.7 02:39:02 27° W 02:39:43 29° WSW 02:43:10 10° SSW
Cosmos 2219 Rocket 4.2 02:34:56 10° S 02:39:53 30° ESE 02:44:48 10° ENE
Cosmos 158 Rocket 4.0 02:38:57 10° SSW 02:43:52 52° WNW 02:48:38 10° N
Cosmos 1758 4.1 02:40:12 10° SSW 02:43:54 32° W 02:45:16 26° NW
Cosmos 1953 2.3 02:40:31 10° SSW 02:44:32 65° W 02:48:28 10° N
H-2A R/B 2.6 02:42:31 10° N 02:46:55 69° WNW 02:51:29 10° SSW
SAR-Lupe-4 3.8 02:46:13 10° S 02:49:46 52° WSW 02:51:51 22° NW
CZ-4B R/B 2.6 02:46:36 10° SSE 02:50:02 43° E 02:53:21 10° N
SL-16 R/B 4.0 02:46:29 10° SSW 02:50:46 20° WSW 02:53:48 14° W
Landsat 5 3.4 02:47:49 10° S 02:51:46 65° WSW 02:54:56 16° NNW
Cosmos 1892 Rocket 3.6 02:48:21 10° N 02:52:42 86° E 02:57:09 10° S
Meteor PRIRODA 4.1 02:50:14 10° NNE 02:53:55 65° ESE 02:57:38 10° S
Meteor 1-16 Rocket 4.3 02:49:16 10° S 02:55:09 86° W 03:01:05 10° N
Iridium 2 3.8 02:53:48 10° SSW 02:57:37 56° W 03:01:23 10° NNW
Meteor 1-31 Rocket 2.8 02:54:47 10° N 02:58:33 56° W 03:02:22 10° SSW
Cosmos 1689 Rocket 4.3 02:56:49 10° SE 02:59:27 26° E 03:02:03 10° NNE
Cosmos 2237 4.3 02:53:50 10° SSW 02:59:29 57° WNW 03:05:05 10° N
Iridium 4 Rocket 3.8 02:53:38 10° N 02:59:32 70° W 03:05:22 10° S
Cosmos 1242 Rocket 3.9 02:59:39 10° NNE 03:03:05 41° E 03:06:32 10° SSE
USA 267 3.3 02:58:13 10° SE 03:04:52 86° NE 03:11:19 11° NW
Aurora 2 Rocket 3.6 03:05:42 14° NNW 03:06:33 15° N 03:08:30 10° NNE
KORONAS-FOTON 3.8 03:03:58 10° NNW 03:07:53 71° W 03:11:54 10° S
COSMOS 2428 3.7 03:03:47 10° S 03:09:23 53° ESE 03:14:56 10° NE
Cosmos 1908 3.6 03:05:34 10° S 03:09:31 70° E 03:13:26 10° NNE
Cosmos 2181 Rocket 4.0 03:03:36 10° S 03:09:49 87° E 03:15:59 10° N
Meteor 2-5 Rocket 3.9 03:05:07 10° N 03:11:04 84° W 03:17:04 10° S
Meteor 2-10 4.3 03:06:21 10° SSW 03:12:04 59° W 03:17:39 10° N
FENGYUN 3A 4.0 03:06:51 10° NNE 03:12:17 75° ESE 03:17:48 10° S
DNEPR-1 R/B 4.3 03:13:07 13° WNW 03:16:26 33° SW 03:20:11 10° S
Cosmos 1271 Rocket 2.8 03:13:59 10° N 03:18:01 90° W 03:22:06 10° S
SJ-12 4.0 03:14:24 10° NNE 03:18:33 89° ESE 03:22:46 10° SSW
Shenzhou-11 Module 3.8 03:19:29 10° WSW 03:21:35 20° SSW 03:23:41 10° SE
RESURS DK-1 4.3 03:23:10 10° W 03:23:45 10° W 03:24:21 10° WNW
CZ-4B R/B 3.6 03:22:54 10° NNW 03:26:03 27° W 03:29:13 10° SW
PSLV R/B 3.8 03:23:13 10° N 03:26:55 58° W 03:30:45 10° SSW
Cosmos 724 4.4 03:22:02 10° NNW 03:27:58 78° WSW 03:34:07 10° SSE
ISS -2.2 03:26:02 10° W 03:28:55 25° SW 03:31:50 10° SSE
CZ-4B R/B 3.6 03:29:12 10° NNE 03:34:28 71° ESE 03:39:49 10° S
Cosmos 2322 Rocket 3.9 03:33:51 10° W 03:35:09 11° W 03:36:26 10° WNW
Cosmos 2058 Rocket 3.2 03:32:16 10° SSW 03:36:46 59° W 03:41:10 10° N
